{"data":{"norad_id":63183,"epoch":"2026-09-21T04:22:33.001824Z","epoch_age_seconds":103242,"freshness":"FRESH","line1":"1 63183U 25048A   26264.18232641  .00103092  00000+0  79586-3 0  9999","line2":"2 63183  43.0001 221.8416 0001467 253.2223 106.8484 15.70873649 88885","mean_motion":15.70873649,"eccentricity":0.0001467,"inclination_deg":43.0001,"raan_deg":221.8416,"arg_perigee_deg":253.2223,"mean_anomaly_deg":106.8484,"bstar":0.00079586,"rev_number":8888,"period_min":91.668734841703,"perigee_km":355.41093173103,"apogee_km":357.38684456061,"semimajor_km":6734.5358881458,"source":"CELESTRAK","updated_at":"2026-09-22T09:00:49.794411Z"}}